Time,TemperatureF,DewpointF,PressureIn,WindDirection,WindDirectionDegrees,WindSpeedMPH,WindSpeedGustMPH,Humidity,HourlyPrecipIn,Conditions,Clouds,dailyrainin,SoftwareType,DateUTC
2013-01-16 00:03:00,39.0,35.0,30.28,North,5,0.0,-999.0,86,-99.99,,,0.00,weatherlink.com 1.10,2013-01-16 08:03:00,
2013-01-16 00:18:00,38.9,35.0,30.28,North,5,0.0,-999.0,86,-99.99,,,0.00,weatherlink.com 1.10,2013-01-16 08:18:00,
2013-01-16 00:33:00,38.5,35.0,30.28,North,5,0.0,-999.0,86,-99.99,,,0.00,weatherlink.com 1.10,2013-01-16 08:33:00,
2013-01-16 00:48:00,38.2,35.0,30.28,North,5,0.0,-999.0,87,-99.99,,,0.00,weatherlink.com 1.10,2013-01-16 08:48:00,
2013-01-16 01:03:00,38.1,35.0,30.27,North,5,0.0,-999.0,87,-99.99,,,0.00,weatherlink.com 1.10,2013-01-16 09:03:00,
2013-01-16 01:18:00,37.9,34.0,30.28,North,5,0.0,-999.0,87,-99.99,,,0.00,weatherlink.com 1.10,2013-01-16 09:18:00,
2013-01-16 01:33:00,37.6,34.0,30.28,North,5,0.0,-999.0,88,-99.99,,,0.00,weatherlink.com 1.10,2013-01-16 09:33:00,
2013-01-16 01:48:00,37.3,34.0,30.27,North,5,0.0,-999.0,88,-99.99,,,0.00,weatherlink.com 1.10,2013-01-16 09:48:00,
2013-01-16 02:03:00,37.0,34.0,30.27,North,5,0.0,-999.0,88,-99.99,,,0.00,weatherlink.com 1.10,2013-01-16 10:03:00,
2013-01-16 02:18:00,37.1,34.0,30.27,North,5,0.0,-999.0,89,-99.99,,,0.00,weatherlink.com 1.10,2013-01-16 10:18:00,
2013-01-16 02:33:00,37.0,34.0,30.27,North,5,0.0,-999.0,89,-99.99,,,0.00,weatherlink.com 1.10,2013-01-16 10:33:00,
2013-01-16 02:48:00,36.6,34.0,30.27,North,5,0.0,-999.0,89,-99.99,,,0.00,weatherlink.com 1.10,2013-01-16 10:48:00,
2013-01-16 03:03:00,36.2,33.0,30.28,North,5,0.0,-999.0,89,-99.99,,,0.00,weatherlink.com 1.10,2013-01-16 11:03:00,
2013-01-16 03:18:00,36.0,33.0,30.28,North,5,0.0,-999.0,89,-99.99,,,0.00,weatherlink.com 1.10,2013-01-16 11:18:00,
2013-01-16 03:33:00,35.8,33.0,30.27,North,5,0.0,-999.0,89,-99.99,,,0.00,weatherlink.com 1.10,2013-01-16 11:33:00,
2013-01-16 03:48:00,35.3,32.0,30.27,North,5,0.0,-999.0,89,-99.99,,,0.00,weatherlink.com 1.10,2013-01-16 11:48:00,
2013-01-16 04:03:00,35.3,33.0,30.27,North,5,0.0,-999.0,90,-99.99,,,0.00,weatherlink.com 1.10,2013-01-16 12:03:00,
2013-01-16 04:18:00,35.1,33.0,30.27,North,5,0.0,-999.0,90,-99.99,,,0.00,weatherlink.com 1.10,2013-01-16 12:18:00,
2013-01-16 04:33:00,34.9,32.0,30.26,North,5,0.0,-999.0,90,-99.99,,,0.00,weatherlink.com 1.10,2013-01-16 12:33:00,
2013-01-16 04:48:00,35.0,32.0,30.25,North,5,0.0,-999.0,90,-99.99,,,0.00,weatherlink.com 1.10,2013-01-16 12:48:00,
2013-01-16 05:03:00,34.9,32.0,30.26,North,5,0.0,-999.0,90,-99.99,,,0.00,weatherlink.com 1.10,2013-01-16 13:03:00,
2013-01-16 05:19:00,34.7,32.0,30.25,North,5,0.0,-999.0,90,-99.99,,,0.00,weatherlink.com 1.10,2013-01-16 13:19:00,
2013-01-16 05:34:00,34.4,32.0,30.25,North,5,0.0,-999.0,91,-99.99,,,0.00,weatherlink.com 1.10,2013-01-16 13:34:00,
2013-01-16 05:49:00,34.2,32.0,30.25,North,5,0.0,-999.0,91,-99.99,,,0.00,weatherlink.com 1.10,2013-01-16 13:49:00,
2013-01-16 06:04:00,34.4,32.0,30.25,North,5,0.0,-999.0,91,-99.99,,,0.00,weatherlink.com 1.10,2013-01-16 14:04:00,
2013-01-16 06:19:00,34.2,32.0,30.25,North,5,0.0,-999.0,91,-99.99,,,0.00,weatherlink.com 1.10,2013-01-16 14:19:00,
2013-01-16 06:34:00,34.2,32.0,30.25,North,5,0.0,-999.0,91,-99.99,,,0.00,weatherlink.com 1.10,2013-01-16 14:34:00,
2013-01-16 06:49:00,33.9,32.0,30.25,North,5,0.0,-999.0,91,-99.99,,,0.00,weatherlink.com 1.10,2013-01-16 14:49:00,
2013-01-16 07:04:00,33.9,32.0,30.26,North,5,0.0,-999.0,91,-99.99,,,0.00,weatherlink.com 1.10,2013-01-16 15:04:00,
2013-01-16 07:19:00,34.1,32.0,30.27,North,5,0.0,-999.0,91,-99.99,,,0.00,weatherlink.com 1.10,2013-01-16 15:19:00,
2013-01-16 07:34:00,34.4,32.0,30.27,North,5,0.0,-999.0,92,-99.99,,,0.00,weatherlink.com 1.10,2013-01-16 15:34:00,
2013-01-16 07:49:00,36.9,35.0,30.27,North,5,0.0,-999.0,93,-99.99,,,0.00,weatherlink.com 1.10,2013-01-16 15:49:00,
2013-01-16 08:04:00,39.7,38.0,30.27,North,5,0.0,-999.0,92,-99.99,,,0.00,weatherlink.com 1.10,2013-01-16 16:04:00,
2013-01-16 08:19:00,42.9,40.0,30.28,North,5,0.0,-999.0,90,-99.99,,,0.00,weatherlink.com 1.10,2013-01-16 16:19:00,
2013-01-16 08:34:00,45.8,39.0,30.27,North,5,0.0,-999.0,78,-99.99,,,0.00,weatherlink.com 1.10,2013-01-16 16:34:00,
2013-01-16 08:49:00,48.5,38.0,30.28,North,5,0.0,-999.0,66,-99.99,,,0.00,weatherlink.com 1.10,2013-01-16 16:49:00,
2013-01-16 09:04:00,50.5,36.0,30.28,North,5,0.0,-999.0,58,-99.99,,,0.00,weatherlink.com 1.10,2013-01-16 17:04:00,
2013-01-16 09:19:00,52.4,36.0,30.27,North,5,0.0,-999.0,54,-99.99,,,0.00,weatherlink.com 1.10,2013-01-16 17:19:00,
2013-01-16 09:34:00,54.4,36.0,30.27,North,5,0.0,-999.0,50,-99.99,,,0.00,weatherlink.com 1.10,2013-01-16 17:34:00,
2013-01-16 09:49:00,55.7,35.0,30.27,SE,140,2.0,-999.0,46,-99.99,,,0.00,weatherlink.com 1.10,2013-01-16 17:49:00,
2013-01-16 10:04:00,56.8,34.0,30.26,SE,140,0.0,-999.0,43,-99.99,,,0.00,weatherlink.com 1.10,2013-01-16 18:04:00,
2013-01-16 10:19:00,58.8,35.0,30.25,East,93,0.0,-999.0,41,-99.99,,,0.00,weatherlink.com 1.10,2013-01-16 18:19:00,
2013-01-16 10:34:00,59.5,34.0,30.25,SSW,196,0.0,-999.0,38,-99.99,,,0.00,weatherlink.com 1.10,2013-01-16 18:34:00,
2013-01-16 10:49:00,61.0,35.0,30.23,SW,215,0.0,-999.0,38,-99.99,,,0.00,weatherlink.com 1.10,2013-01-16 18:49:00,
2013-01-16 11:04:00,61.8,35.0,30.22,NW,320,0.0,-999.0,37,-99.99,,,0.00,weatherlink.com 1.10,2013-01-16 19:04:00,
2013-01-16 11:20:00,64.1,36.0,30.21,WNW,285,3.0,-999.0,35,-99.99,,,0.00,weatherlink.com 1.10,2013-01-16 19:20:00,
2013-01-16 11:35:00,65.7,34.0,30.20,NE,41,0.0,-999.0,31,-99.99,,,0.00,weatherlink.com 1.10,2013-01-16 19:35:00,
2013-01-16 11:50:00,65.4,33.0,30.19,NNW,348,1.0,-999.0,30,-99.99,,,0.00,weatherlink.com 1.10,2013-01-16 19:50:00,
2013-01-16 12:05:00,67.3,31.0,30.17,NE,34,0.0,-999.0,26,-99.99,,,0.00,weatherlink.com 1.10,2013-01-16 20:05:00,
2013-01-16 12:20:00,67.5,33.0,30.16,SW,230,0.0,-999.0,28,-99.99,,,0.00,weatherlink.com 1.10,2013-01-16 20:20:00,
2013-01-16 12:35:00,68.5,33.0,30.15,WNW,283,0.0,-999.0,27,-99.99,,,0.00,weatherlink.com 1.10,2013-01-16 20:35:00,
2013-01-16 12:50:00,69.1,33.0,30.14,WNW,290,3.0,-999.0,26,-99.99,,,0.00,weatherlink.com 1.10,2013-01-16 20:50:00,
2013-01-16 13:05:00,69.5,33.0,30.13,NNW,333,2.0,-999.0,26,-99.99,,,0.00,weatherlink.com 1.10,2013-01-16 21:05:00,
2013-01-16 13:20:00,69.9,33.0,30.12,West,281,2.0,-999.0,26,-99.99,,,0.00,weatherlink.com 1.10,2013-01-16 21:20:00,
2013-01-16 13:35:00,70.3,34.0,30.11,WSW,254,2.0,-999.0,26,-99.99,,,0.00,weatherlink.com 1.10,2013-01-16 21:35:00,
2013-01-16 13:50:00,70.6,33.0,30.11,West,279,3.0,-999.0,25,-99.99,,,0.00,weatherlink.com 1.10,2013-01-16 21:50:00,
2013-01-16 14:05:00,71.2,33.0,30.10,North,355,1.0,-999.0,24,-99.99,,,0.00,weatherlink.com 1.10,2013-01-16 22:05:00,
2013-01-16 14:20:00,71.1,31.0,30.09,NW,317,2.0,-999.0,23,-99.99,,,0.00,weatherlink.com 1.10,2013-01-16 22:20:00,
2013-01-16 14:35:00,71.2,30.0,30.09,NW,317,1.0,-999.0,22,-99.99,,,0.00,weatherlink.com 1.10,2013-01-16 22:35:00,
2013-01-16 14:50:00,71.0,35.0,30.09,NNW,332,3.0,-999.0,27,-99.99,,,0.00,weatherlink.com 1.10,2013-01-16 22:50:00,
2013-01-16 15:05:00,69.8,36.0,30.09,NW,304,2.0,-999.0,29,-99.99,,,0.00,weatherlink.com 1.10,2013-01-16 23:05:00,
2013-01-16 15:20:00,69.3,36.0,30.09,WNW,296,2.0,-999.0,29,-99.99,,,0.00,weatherlink.com 1.10,2013-01-16 23:20:00,
2013-01-16 15:35:00,68.3,35.0,30.09,NNW,331,1.0,-999.0,29,-99.99,,,0.00,weatherlink.com 1.10,2013-01-16 23:35:00,
2013-01-16 15:50:00,67.2,33.0,30.09,NNW,340,4.0,-999.0,28,-99.99,,,0.00,weatherlink.com 1.10,2013-01-16 23:50:00,
2013-01-16 16:05:00,66.3,38.0,30.09,NE,40,3.0,-999.0,35,-99.99,,,0.00,weatherlink.com 1.10,2013-01-17 00:05:00,
2013-01-16 16:20:00,64.8,38.0,30.09,NNW,336,1.0,-999.0,37,-99.99,,,0.00,weatherlink.com 1.10,2013-01-17 00:20:00,
2013-01-16 16:35:00,63.4,38.0,30.09,NNW,347,0.0,-999.0,39,-99.99,,,0.00,weatherlink.com 1.10,2013-01-17 00:35:00,
2013-01-16 16:50:00,62.2,39.0,30.09,NNW,346,0.0,-999.0,42,-99.99,,,0.00,weatherlink.com 1.10,2013-01-17 00:50:00,
2013-01-16 17:05:00,60.9,39.0,30.10,North,5,1.0,-999.0,44,-99.99,,,0.00,weatherlink.com 1.10,2013-01-17 01:05:00,
2013-01-16 17:20:00,59.6,40.0,30.09,NNW,347,0.0,-999.0,48,-99.99,,,0.00,weatherlink.com 1.10,2013-01-17 01:20:00,
2013-01-16 17:35:00,58.4,41.0,30.09,NNW,347,1.0,-999.0,52,-99.99,,,0.00,weatherlink.com 1.10,2013-01-17 01:35:00,
2013-01-16 17:50:00,57.5,42.0,30.09,NNW,347,0.0,-999.0,56,-99.99,,,0.00,weatherlink.com 1.10,2013-01-17 01:50:00,
2013-01-16 18:05:00,56.6,42.0,30.10,NNW,347,0.0,-999.0,59,-99.99,,,0.00,weatherlink.com 1.10,2013-01-17 02:05:00,
2013-01-16 18:20:00,55.7,43.0,30.10,NNW,347,0.0,-999.0,62,-99.99,,,0.00,weatherlink.com 1.10,2013-01-17 02:20:00,
2013-01-16 18:35:00,54.8,43.0,30.10,NNW,347,0.0,-999.0,64,-99.99,,,0.00,weatherlink.com 1.10,2013-01-17 02:35:00,
2013-01-16 18:50:00,53.8,43.0,30.10,NNW,347,0.0,-999.0,66,-99.99,,,0.00,weatherlink.com 1.10,2013-01-17 02:50:00,
2013-01-16 19:05:00,52.9,43.0,30.10,NNW,347,0.0,-999.0,68,-99.99,,,0.00,weatherlink.com 1.10,2013-01-17 03:05:00,
2013-01-16 19:20:00,51.7,42.0,30.10,NNW,347,0.0,-999.0,69,-99.99,,,0.00,weatherlink.com 1.10,2013-01-17 03:20:00,
2013-01-16 19:35:00,50.8,42.0,30.09,NNW,347,0.0,-999.0,71,-99.99,,,0.00,weatherlink.com 1.10,2013-01-17 03:35:00,
2013-01-16 19:50:00,49.8,41.0,30.10,NNW,347,0.0,-999.0,73,-99.99,,,0.00,weatherlink.com 1.10,2013-01-17 03:50:00,
2013-01-16 20:05:00,49.1,42.0,30.09,NNW,347,0.0,-999.0,75,-99.99,,,0.00,weatherlink.com 1.10,2013-01-17 04:05:00,
2013-01-16 20:20:00,48.8,42.0,30.09,NNW,347,0.0,-999.0,77,-99.99,,,0.00,weatherlink.com 1.10,2013-01-17 04:20:00,
2013-01-16 20:35:00,48.1,41.0,30.08,NNW,347,0.0,-999.0,77,-99.99,,,0.00,weatherlink.com 1.10,2013-01-17 04:35:00,
2013-01-16 20:50:00,47.6,41.0,30.08,NNW,347,0.0,-999.0,78,-99.99,,,0.00,weatherlink.com 1.10,2013-01-17 04:50:00,
2013-01-16 21:05:00,46.9,41.0,30.08,NNW,347,0.0,-999.0,79,-99.99,,,0.00,weatherlink.com 1.10,2013-01-17 05:05:00,
2013-01-16 21:20:00,46.6,41.0,30.07,NNW,347,0.0,-999.0,81,-99.99,,,0.00,weatherlink.com 1.10,2013-01-17 05:20:00,
2013-01-16 21:35:00,46.4,41.0,30.07,NNW,347,0.0,-999.0,81,-99.99,,,0.00,weatherlink.com 1.10,2013-01-17 05:35:00,
2013-01-16 21:50:00,46.0,41.0,30.06,NNW,347,0.0,-999.0,81,-99.99,,,0.00,weatherlink.com 1.10,2013-01-17 05:50:00,
2013-01-16 22:05:00,46.0,41.0,30.06,East,87,0.0,-999.0,82,-99.99,,,0.00,weatherlink.com 1.10,2013-01-17 06:05:00,
2013-01-16 22:20:00,45.8,41.0,30.06,East,87,0.0,-999.0,83,-99.99,,,0.00,weatherlink.com 1.10,2013-01-17 06:20:00,
2013-01-16 22:35:00,45.6,41.0,30.06,East,87,0.0,-999.0,83,-99.99,,,0.00,weatherlink.com 1.10,2013-01-17 06:35:00,
2013-01-16 22:50:00,45.1,41.0,30.05,East,87,0.0,-999.0,84,-99.99,,,0.00,weatherlink.com 1.10,2013-01-17 06:50:00,
2013-01-16 23:05:00,44.7,40.0,30.05,East,87,0.0,-999.0,84,-99.99,,,0.00,weatherlink.com 1.10,2013-01-17 07:05:00,
2013-01-16 23:20:00,44.5,40.0,30.05,East,87,0.0,-999.0,84,-99.99,,,0.00,weatherlink.com 1.10,2013-01-17 07:20:00,
2013-01-16 23:35:00,45.6,40.0,30.05,NE,46,0.0,-999.0,82,-99.99,,,0.00,weatherlink.com 1.10,2013-01-17 07:35:00,
2013-01-16 23:50:00,46.1,40.0,30.05,NE,46,1.0,-999.0,78,-99.99,,,0.00,weatherlink.com 1.10,2013-01-17 07:50:00,